Weather History for Ogallala, NE

Change the Weather History Date:

Saturday, February 8, 2014

  Actual Average Record
Temperature  
Mean Temperature 20 °F -  
Max Temperature 27 °F 38 °F 73 °F (1954)
Min Temperature 12 °F 9 °F -10 °F (1986)
Degree Days  
Heating Degree Days 46    
Moisture  
Dew Point 13 °F    
Average Humidity 73    
Maximum Humidity 85    
Minimum Humidity 64    
Precipitation  
Precipitation 0.00 in - - ()
Sea Level Pressure  
Sea Level Pressure 29.93 in    
Wind  
Wind Speed 6 mph (North)    
Max Wind Speed 15 mph    
Max Gust Speed -    
Visibility 10 miles    
Events Snow    
Averages and records for this station are not official NWS values.
T = Trace of Precipitation, MM = Missing Value Source: NWS Daily Summary

Daily Weather History Graph

Daily Weather History Graph

Search for Another Location

Airport:

Trip Planner

Search our weather history database for the weather conditions in past years. The results will help you decide how hot, cold, wet, or windy it might be!

Date:

Astronomy

Feb. 08, 2014 Rise Set
Actual Time 6:50 AM MST 5:12 PM MST
Civil Twilight 6:21 AM MST 5:41 PM MST
Nautical Twilight 5:49 AM MST 6:14 PM MST
Astronomical Twilight 5:17 AM MST 6:46 PM MST
Moon 12:07 PM MST (2/8) 2:05 AM MST (2/8)
Length of Visible Light 11h 19m
Length of Day
10h 22m
Waxing Gibbous, 69% of the Moon is Illuminated
Feb 8
Waxing Gibbous
Feb 14
Full
Feb 22
Last Quarter
Mar 1
New
Mar 8
First Quarter

Hourly Weather History & Observations

Time (MST) Temp. Windchill Dew Point Humidity Pressure Visibility Wind Dir Wind Speed Gust Speed Precip Events Conditions
12:15 AM 15.8 °F 5.1 °F 8.1 °F 72% 29.83 in 10.0 mi West 8.1 mph - N/A   Overcast
12:35 AM 16.7 °F 8.3 °F 9.3 °F 73% 29.84 in 10.0 mi WNW 5.8 mph - N/A   Overcast
12:55 AM 16.9 °F 8.5 °F 9.9 °F 74% 29.83 in 10.0 mi WSW 5.8 mph - N/A   Overcast
1:15 AM 16.7 °F 8.3 °F 9.5 °F 73% 29.84 in 10.0 mi West 5.8 mph - N/A   Mostly Cloudy
1:35 AM 16.5 °F 6.9 °F 10.0 °F 76% 29.85 in 10.0 mi West 6.9 mph - N/A   Mostly Cloudy
1:55 AM 16.7 °F 11.2 °F 10.2 °F 76% 29.85 in 7.0 mi West 3.5 mph - N/A   Mostly Cloudy
2:15 AM 18.0 °F 6.9 °F 11.8 °F 77% 29.84 in 10.0 mi West 9.2 mph - N/A   Scattered Clouds
2:35 AM 20.3 °F 11.5 °F 11.8 °F 70% 29.84 in 10.0 mi WNW 6.9 mph - N/A   Scattered Clouds
2:55 AM 18.7 °F 10.6 °F 11.8 °F 75% 29.84 in 10.0 mi WNW 5.8 mph - N/A   Clear
3:15 AM 20.3 °F 10.6 °F 12.2 °F 71% 29.83 in 10.0 mi West 8.1 mph - N/A   Clear
3:35 AM 20.1 °F 8.1 °F 11.3 °F 69% 29.83 in 10.0 mi NW 11.5 mph - N/A   Clear
3:55 AM 22.1 °F - 12.4 °F 66% 29.84 in 10.0 mi Calm Calm - N/A   Clear
4:15 AM 20.5 °F 14.0 °F 12.4 °F 71% 29.85 in 10.0 mi WNW 4.6 mph - N/A   Clear
4:35 AM 22.5 °F 16.3 °F 12.4 °F 65% 29.86 in 10.0 mi WNW 4.6 mph - N/A   Clear
4:55 AM 22.1 °F 14.7 °F 12.6 °F 67% 29.86 in 10.0 mi NW 5.8 mph - N/A   Clear
5:15 AM 19.2 °F 10.2 °F 11.1 °F 71% 29.86 in 10.0 mi West 6.9 mph - N/A   Clear
5:35 AM 15.8 °F 8.6 °F 9.5 °F 76% 29.86 in 10.0 mi SW 4.6 mph - N/A   Clear
5:55 AM 12.6 °F 6.5 °F 6.3 °F 76% 29.87 in 10.0 mi WNW 3.5 mph - N/A   Clear
6:15 AM 14.9 °F 9.2 °F 9.3 °F 79% 29.87 in 10.0 mi NNE 3.5 mph - N/A   Clear
6:35 AM 16.0 °F 2.9 °F 9.5 °F 76% 29.86 in 10.0 mi North 11.5 mph - N/A   Clear
6:55 AM 18.5 °F 8.4 °F 10.6 °F 71% 29.87 in 10.0 mi NNW 8.1 mph - N/A   Clear
7:15 AM 16.2 °F 9.0 °F 9.1 °F 74% 29.88 in 10.0 mi SW 4.6 mph - N/A   Clear
7:35 AM 19.6 °F - 11.1 °F 70% 29.89 in 10.0 mi Calm Calm - N/A   Scattered Clouds
7:55 AM 19.2 °F - 11.3 °F 71% 29.89 in 10.0 mi Calm Calm - N/A   Mostly Cloudy
8:15 AM 17.2 °F 11.9 °F 10.2 °F 74% 29.89 in 10.0 mi WSW 3.5 mph - N/A   Overcast
8:35 AM 16.7 °F - 9.5 °F 73% 29.89 in 10.0 mi Calm Calm - N/A   Mostly Cloudy
8:55 AM 16.7 °F 9.6 °F 9.7 °F 74% 29.89 in 10.0 mi WSW 4.6 mph - N/A   Overcast
9:15 AM 17.6 °F 10.7 °F 10.8 °F 75% 29.90 in 10.0 mi West 4.6 mph - N/A   Overcast
9:35 AM 18.9 °F 13.7 °F 11.5 °F 73% 29.91 in 10.0 mi West 3.5 mph - N/A   Overcast
9:55 AM 19.6 °F 13.0 °F 12.0 °F 72% 29.92 in 10.0 mi WSW 4.6 mph - N/A   Overcast
10:15 AM 21.4 °F 16.6 °F 13.1 °F 70% 29.92 in 10.0 mi West 3.5 mph - N/A   Overcast
10:35 AM 22.5 °F - 13.3 °F 68% 29.91 in 10.0 mi Calm Calm - N/A   Overcast
10:55 AM 24.3 °F 19.9 °F 13.8 °F 64% 29.90 in 10.0 mi South 3.5 mph - N/A   Scattered Clouds
11:15 AM 24.4 °F 20.1 °F 14.2 °F 65% 29.91 in 10.0 mi SW 3.5 mph - N/A   Mostly Cloudy
11:35 AM 24.6 °F 18.8 °F 14.7 °F 66% 29.91 in 10.0 mi West 4.6 mph - N/A   Mostly Cloudy
11:55 AM 25.7 °F 21.5 °F 15.1 °F 64% 29.90 in 10.0 mi South 3.5 mph - N/A   Overcast
12:15 PM 26.1 °F 20.5 °F 16.0 °F 66% 29.89 in 10.0 mi SSE 4.6 mph - N/A   Overcast
12:35 PM 26.1 °F - 15.6 °F 65% 29.89 in 10.0 mi Calm Calm - N/A   Overcast
12:55 PM 26.6 °F - 16.2 °F 65% 29.90 in 10.0 mi Calm Calm - N/A   Overcast
1:15 PM 26.2 °F 22.1 °F 16.5 °F 67% 29.89 in 10.0 mi ESE 3.5 mph - N/A   Overcast
1:35 PM 26.4 °F - 16.3 °F 66% 29.89 in 10.0 mi Calm Calm - N/A   Overcast
1:55 PM 26.6 °F 21.2 °F 16.7 °F 66% 29.89 in 10.0 mi East 4.6 mph - N/A   Overcast
2:15 PM 26.6 °F 19.1 °F 17.2 °F 68% 29.89 in 10.0 mi East 6.9 mph - N/A   Overcast
2:35 PM 27.1 °F 19.7 °F 17.6 °F 67% 29.88 in 10.0 mi East 6.9 mph - N/A   Overcast
2:55 PM 27.0 °F 17.3 °F 17.4 °F 67% 29.88 in 10.0 mi East 10.4 mph - N/A   Mostly Cloudy
3:15 PM 26.6 °F 17.5 °F 17.4 °F 68% 29.88 in 10.0 mi East 9.2 mph - N/A   Scattered Clouds
3:35 PM 26.4 °F 17.3 °F 17.4 °F 69% 29.90 in 10.0 mi East 9.2 mph - N/A   Mostly Cloudy
3:55 PM 25.9 °F 16.6 °F 16.7 °F 68% 29.91 in 10.0 mi East 9.2 mph - N/A   Scattered Clouds
4:15 PM 25.7 °F 15.7 °F 16.5 °F 68% 29.91 in 10.0 mi East 10.4 mph - N/A   Scattered Clouds
4:35 PM 24.8 °F 15.3 °F 15.8 °F 69% 29.93 in 10.0 mi ENE 9.2 mph - N/A   Scattered Clouds
4:55 PM 24.4 °F 14.2 °F 15.8 °F 70% 29.94 in 10.0 mi East 10.4 mph - N/A   Clear
5:15 PM 23.7 °F 14.0 °F 15.6 °F 71% 29.95 in 10.0 mi ENE 9.2 mph - N/A   Clear
5:35 PM 22.6 °F 14.3 °F 15.3 °F 73% 29.95 in 10.0 mi ENE 6.9 mph - N/A   Scattered Clouds
5:55 PM 21.6 °F 14.0 °F 14.9 °F 76% 29.96 in 10.0 mi East 5.8 mph - N/A   Clear
6:15 PM 21.7 °F 14.3 °F 15.3 °F 76% 29.97 in 10.0 mi ENE 5.8 mph - N/A   Scattered Clouds
6:35 PM 22.6 °F 16.5 °F 16.2 °F 76% 29.98 in 10.0 mi East 4.6 mph - N/A   Overcast
6:55 PM 22.1 °F 14.7 °F 15.8 °F 77% 29.98 in 7.0 mi ENE 5.8 mph - N/A Snow Light Snow
7:15 PM 21.9 °F 13.4 °F 16.3 °F 79% 30.01 in 10.0 mi NE 6.9 mph - N/A   Overcast
7:35 PM 22.8 °F 12.2 °F 18.1 °F 82% 30.07 in 10.0 mi NE 10.4 mph - N/A   Overcast
7:55 PM 23.4 °F 13.5 °F 18.9 °F 83% 30.06 in 10.0 mi NE 9.2 mph - N/A Snow Light Snow
8:15 PM 22.8 °F 12.2 °F 18.5 °F 83% 30.08 in 10.0 mi NE 10.4 mph - N/A   Overcast
8:35 PM 22.3 °F 12.2 °F 17.6 °F 82% 30.09 in 10.0 mi NE 9.2 mph - N/A   Overcast
8:55 PM 21.9 °F 10.4 °F 17.4 °F 83% 30.11 in 10.0 mi NNE 11.5 mph - N/A   Overcast
9:15 PM 21.0 °F 9.3 °F 16.9 °F 84% 30.10 in 10.0 mi NE 11.5 mph - N/A Snow Light Snow
9:35 PM 20.8 °F 11.2 °F 17.1 °F 85% 30.13 in 7.0 mi NNE 8.1 mph - N/A Snow Light Snow
9:55 PM 19.8 °F 5.9 °F 15.1 °F 82% 30.13 in 10.0 mi NNE 15.0 mph - N/A Snow Light Snow
10:15 PM 19.4 °F 7.2 °F 14.7 °F 82% 30.13 in 10.0 mi NNE 11.5 mph - N/A Snow Light Snow
10:35 PM 18.5 °F 5.5 °F 13.1 °F 79% 30.14 in 10.0 mi NNE 12.7 mph - N/A   Overcast
10:55 PM 18.3 °F 4.6 °F 13.1 °F 80% 30.14 in 10.0 mi NNE 13.8 mph - N/A   Overcast
11:15 PM 17.4 °F 4.1 °F 11.8 °F 79% 30.14 in 10.0 mi NNE 12.7 mph - N/A   Overcast
11:35 PM 16.7 °F 2.6 °F 10.2 °F 76% 30.14 in 10.0 mi NNE 13.8 mph - N/A   Overcast
11:55 PM 15.8 °F 0.9 °F 9.3 °F 76% 30.15 in 10.0 mi NNE 15.0 mph - N/A   Overcast